User: anonymous
Location: Keeble Observatory
(37.7625°N, 77.4755°W)
Time: 06:22:01
(UTC-04:00)
Language:

Cosmos 1484 Rocket - Orbit

View from above orbital plane
View from above orbital plane
View from above satellite
View from above satellite

Ground track
Ground track

The orbit data is extracted from the following two-line orbital elements,

1 14208U 83075B   14272.82312402  .00002918  00000-0  19394-3 0  1380
2 14208 097.4163 305.9476 0040478 305.4774 054.2679 15.07295003697966
Epoch (UTC): 29 September 2014 19:45:17
Eccentricity: 0.0040478
inclination: 97.4163°
perigee height: 516 km
apogee height: 572 km
right ascension of ascending node: 305.9476°
argument of perigee: 305.4774°
revolutions per day: 15.07295003
mean anomaly at epoch: 54.2679°
orbit number at epoch: 69796

The dashed part of the orbit path shows where the satellite is in the earth's shadow,  

DLR